Location: Clarion
(42.7316°N, 93.7330°W)
Time: 09:07:26
(UTC+00:00)

SJ 16-02 - Pass Details

Date: 22 April 2026
Orbit: 582 x 592 km, 75.0° (Epoch: 17 May)

Event Time Altitude Azimuth Distance (km) Brightness Sun altitude
Rises 03:54:45 0° 353° (N) 2,821 5.6 -26.6°
Reaches altitude 10° 03:57:20 10° 7° (N) 1,914 4.4 -26.8°
Enters shadow 03:59:30 21° 34° (NE) 1,353 3.2 -27.1°
